TimePST,TemperatureF,Dew PointF,Humidity,Sea Level PressureIn,VisibilityMPH,Wind Direction,Wind SpeedMPH,Gust SpeedMPH,PrecipitationIn,Events,Conditions,WindDirDegrees,DateUTC
12:53 AM,35.1,28.9,78,30.19,10.0,South,4.6,-,N/A,,Clear,190,2014-02-01 08:53:00
1:53 AM,30.9,27.0,85,30.19,10.0,ESE,3.5,-,N/A,,Clear,110,2014-02-01 09:53:00
2:53 AM,30.9,27.0,85,30.19,10.0,Calm,Calm,-,N/A,,Clear,0,2014-02-01 10:53:00
3:53 AM,28.0,25.0,88,30.20,10.0,Calm,Calm,-,N/A,,Clear,0,2014-02-01 11:53:00
4:28 AM,30.0,26.1,85,30.18,10.0,Calm,Calm,-,N/A,,Mostly Cloudy,0,2014-02-01 12:28:00
4:53 AM,30.0,26.1,85,30.20,10.0,SSE,3.5,-,N/A,,Mostly Cloudy,160,2014-02-01 12:53:00
5:53 AM,30.0,26.1,85,30.20,10.0,Calm,Calm,-,N/A,,Mostly Cloudy,0,2014-02-01 13:53:00
6:53 AM,28.0,25.0,88,30.21,10.0,Calm,Calm,-,N/A,,Mostly Cloudy,0,2014-02-01 14:53:00
7:15 AM,27.0,24.1,89,30.18,5.0,ENE,3.5,-,N/A,,Scattered Clouds,70,2014-02-01 15:15:00
7:53 AM,28.0,25.0,88,30.22,10.0,Calm,Calm,-,N/A,,Mostly Cloudy,0,2014-02-01 15:53:00
8:53 AM,30.9,28.0,89,30.22,9.0,Calm,Calm,-,N/A,,Overcast,0,2014-02-01 16:53:00
9:21 AM,33.1,27.0,78,30.19,10.0,Calm,Calm,-,N/A,,Scattered Clouds,0,2014-02-01 17:21:00
9:53 AM,36.0,28.9,76,30.21,10.0,Calm,Calm,-,N/A,,Clear,0,2014-02-01 17:53:00
10:53 AM,37.9,30.0,73,30.19,10.0,North,3.5,-,N/A,,Partly Cloudy,350,2014-02-01 18:53:00
11:53 AM,42.1,32.0,67,30.14,10.0,NE,3.5,-,N/A,,Clear,40,2014-02-01 19:53:00
12:53 PM,45.0,30.9,58,30.11,10.0,Variable,3.5,-,N/A,,Clear,0,2014-02-01 20:53:00
1:53 PM,48.0,30.9,52,30.07,10.0,Variable,3.5,-,N/A,,Clear,0,2014-02-01 21:53:00
2:53 PM,50.0,30.0,46,30.05,10.0,NW,5.8,-,N/A,,Partly Cloudy,320,2014-02-01 22:53:00
3:53 PM,51.1,30.9,46,30.04,10.0,North,4.6,-,N/A,,Partly Cloudy,360,2014-02-01 23:53:00
4:53 PM,50.0,30.0,46,30.02,10.0,WNW,4.6,-,N/A,,Partly Cloudy,290,2014-02-02 00:53:00
5:53 PM,46.9,30.0,52,30.01,10.0,Calm,Calm,-,N/A,,Clear,0,2014-02-02 01:53:00
6:53 PM,42.1,30.9,65,30.02,10.0,SSW,6.9,-,N/A,,Clear,200,2014-02-02 02:53:00
7:53 PM,41.0,28.9,62,30.01,10.0,South,8.1,-,N/A,,Mostly Cloudy,180,2014-02-02 03:53:00
8:53 PM,36.0,28.9,76,30.02,10.0,ENE,3.5,-,N/A,,Mostly Cloudy,60,2014-02-02 04:53:00
9:53 PM,36.0,28.9,76,30.01,10.0,Calm,Calm,-,N/A,,Clear,0,2014-02-02 05:53:00
10:53 PM,34.0,28.0,79,30.00,10.0,East,3.5,-,N/A,,Clear,80,2014-02-02 06:53:00
11:53 PM,30.9,26.1,82,29.99,10.0,Calm,Calm,-,N/A,,Clear,0,2014-02-02 07:53:00